Location: ?
(35.4064°N, 139.3593°E)
Time: 09:11:37
(UTC+00:00)

ALOS - Visible Passes

Search period start: 24 July 2024 00:00
Search period end: 03 August 2024 00:00
Orbit: 672 x 675 km, 98.0° (Epoch: 23 July)

Date Brightness Start Highest point End Pass type
(mag) Time Alt. Az. Time Alt. Az. Time Alt. Az.
24 Jul 2.2 17:20:23 10° NNE 17:25:00 80° E 17:25:36 66° S visible
25 Jul 4.5 16:18:41 10° ENE 16:21:26 16° E 16:21:29 16° E visible
25 Jul 2.8 17:54:24 10° N 17:58:45 42° WNW 17:59:46 37° WSW visible
26 Jul 3.3 16:51:12 10° NNE 16:55:28 36° E 16:55:38 36° ESE visible
26 Jul 3.9 18:29:08 10° NNW 18:32:20 19° WNW 18:33:55 16° W visible
27 Jul 2.1 17:24:41 10° NNE 17:29:19 89° E 17:29:47 72° S visible
28 Jul 4.4 16:22:41 10° NE 16:25:38 17° E 16:25:38 17° E visible
28 Jul 2.9 17:58:46 10° N 18:03:01 38° WNW 18:03:55 34° W visible
29 Jul 3.1 16:55:22 10° NNE 16:59:44 41° E 16:59:46 41° E visible
29 Jul 4.0 18:33:35 10° NNW 18:36:33 17° WNW 18:38:02 15° W visible
30 Jul 2.0 17:28:55 10° N 17:33:32 82° WNW 17:33:53 75° SW visible
31 Jul 4.3 16:26:39 10° NE 16:29:43 19° E 16:29:43 19° E visible
31 Jul 3.0 18:03:02 10° N 18:07:12 34° WNW 18:07:59 32° W visible
01 Aug 3.0 16:59:29 10° NNE 17:03:48 45° E 17:03:48 45° E visible
01 Aug 4.0 18:38:00 10° NNW 18:40:40 15° WNW 18:42:05 14° W visible
02 Aug 2.1 17:33:05 10° N 17:37:41 73° WNW 17:37:53 72° W visible
